Tracking 30922 objects as of 2-Jul-2025
HD Live streaming from Space Station
objects crossing your sky now

FREGAT DEB

Track FREGAT DEB now!
10-day predictions


NORAD ID: 45999
Int'l Code: 2011-037HA
Perigee: 756.1 km
Apogee: 4,629.1 km
Inclination: 51.5 °
Period: 143.1 minutes
Semi major axis: 9063 km
RCS: Unknown
Launch date: July 18, 2011
Source: Commonwealth of Independent States (former USSR) (CIS)
Launch site: TYURATAM MISSILE AND SPACE COMPLEX (TTMTR)

Note: This is SATELLITE DEBRIS
Your satellite tracking list
Your tracking list is empty




NASA's NSSDC Master Catalog

Two Line Element Set (TLE):
1 45999U 11037HA  25165.87084987  .00000469  00000-0  13329-2 0  9997
2 45999  51.4662 345.1676 2136545 247.5040  88.6575 10.06127101179186
Source of the keplerian elements: AFSPC